Weather History for Laurinburg-Maxton, NC

Change the Weather History Date:

Saturday, June 22, 2013

  Actual Average (KLBT) Record (KLBT)
Temperature  
Mean Temperature 74 °F 79 °F  
Max Temperature 82 °F 90 °F 94 °F (2007)
Min Temperature 68 °F 69 °F 57 °F (2003)
Degree Days  
Heating Degree Days 0 0  
Month to date heating degree days 0  
Since 1 June heating degree days 0  
Since 1 July heating degree days 2761  
Cooling Degree Days 10 14  
Month to date cooling degree days 267  
Year to date cooling degree days 517  
Since 1 June cooling degree days 267  
Growing Degree Days 24 (Base 50)    
Moisture  
Dew Point 69 °F    
Average Humidity 83    
Maximum Humidity 96    
Minimum Humidity 67    
Precipitation  
Precipitation 0.01 in 0.13 in 1.05 in (2000)
Month to date precipitation 3.31  
Year to date precipitation 18.38  
Sea Level Pressure  
Sea Level Pressure 30.16 in    
Wind  
Wind Speed 7 mph (NNE)    
Max Wind Speed 13 mph    
Max Gust Speed 18 mph    
Visibility 10 miles    
Events Rain    
T = Trace of Precipitation, MM = Missing Value Source: NWS Daily Summary

Daily Weather History Graph

Daily Weather History Graph

Search for Another Location

Airport:

Trip Planner

Search our weather history database for the weather conditions in past years. The results will help you decide how hot, cold, wet, or windy it might be!

Date:

Astronomy

Jun. 22, 2013 Rise Set
Actual Time 6:04 AM EDT 8:34 PM EDT
Civil Twilight 5:35 AM EDT 9:03 PM EDT
Nautical Twilight 4:58 AM EDT 9:40 PM EDT
Astronomical Twilight 4:18 AM EDT 10:20 PM EDT
Moon 7:49 PM EDT (6/22) 5:13 AM EDT (6/22)
Length of Visible Light 15h 28m
Length of Day
14h 29m
Waxing Gibbous, 99% of the Moon is Illuminated
Jun 22
Waxing Gibbous
Jun 23
Full
Jun 30
Last Quarter
Jul 8
New
Jul 15
First Quarter

Hourly Weather History & Observations

Time (EDT) Temp. Heat Index Dew Point Humidity Pressure Visibility Wind Dir Wind Speed Gust Speed Precip Events Conditions
12:52 AM 71.1 °F - 64.0 °F 78% 30.18 in 10.0 mi NE 4.6 mph - N/A   Clear
1:52 AM 70.0 °F - 64.9 °F 84% 30.16 in 10.0 mi NE 4.6 mph - N/A   Overcast
2:52 AM 69.1 °F - 66.0 °F 90% 30.15 in 10.0 mi NE 5.8 mph - N/A   Partly Cloudy
3:52 AM 68.0 °F - 66.0 °F 93% 30.14 in 10.0 mi NNE 5.8 mph - N/A   Scattered Clouds
4:04 AM 69.8 °F - 66.2 °F 88% 30.15 in 10.0 mi NNE 5.8 mph - N/A   Mostly Cloudy
4:21 AM 69.8 °F - 66.2 °F 88% 30.15 in 10.0 mi NNE 5.8 mph - N/A   Overcast
4:52 AM 69.1 °F - 66.9 °F 93% 30.14 in 10.0 mi NNE 6.9 mph - N/A   Scattered Clouds
5:52 AM 69.1 °F - 68.0 °F 96% 30.15 in 10.0 mi NNE 8.1 mph - N/A   Overcast
6:19 AM 69.8 °F - 68.0 °F 94% 30.16 in 10.0 mi NNE 8.1 mph - N/A   Overcast
6:52 AM 71.1 °F - 69.1 °F 93% 30.17 in 10.0 mi NNE 9.2 mph - N/A   Overcast
7:07 AM 71.6 °F - 69.8 °F 94% 30.17 in 10.0 mi NNE 10.4 mph - N/A   Overcast
7:52 AM 72.0 °F - 69.1 °F 91% 30.17 in 10.0 mi North 8.1 mph - N/A   Overcast
8:52 AM 73.0 °F - 69.1 °F 87% 30.18 in 10.0 mi NNE 10.4 mph - N/A   Overcast
9:21 AM 73.4 °F - 68.0 °F 83% 30.18 in 10.0 mi NNE 12.7 mph - N/A   Overcast
9:52 AM 75.0 °F - 69.1 °F 82% 30.17 in 10.0 mi NE 11.5 mph 18.4 mph N/A   Overcast
10:52 AM 73.9 °F - 69.1 °F 85% 30.16 in 7.0 mi NNE 10.4 mph - N/A   Overcast
11:32 AM 75.2 °F - 69.8 °F 83% 30.17 in 10.0 mi NNE 10.4 mph - N/A   Overcast
11:52 AM 78.1 °F - 70.0 °F 76% 30.17 in 10.0 mi NE 9.2 mph - N/A   Overcast
12:49 PM 78.8 °F - 69.8 °F 74% 30.18 in 10.0 mi NNE 5.8 mph - N/A   Overcast
12:52 PM 79.0 °F - 70.0 °F 74% 30.18 in 10.0 mi NNE 5.8 mph - N/A   Overcast
1:02 PM 77.0 °F - 69.8 °F 78% 30.18 in 10.0 mi NNE 5.8 mph - 0.00 in Rain Light Rain
1:36 PM 80.6 °F 83.9 °F 69.8 °F 70% 30.18 in 10.0 mi Variable 5.8 mph - 0.00 in   Mostly Cloudy
1:52 PM 79.0 °F - 69.1 °F 72% 30.17 in 10.0 mi North 6.9 mph - 0.00 in   Mostly Cloudy
2:04 PM 77.0 °F - 69.8 °F 78% 30.17 in 10.0 mi NNW 9.2 mph - N/A   Mostly Cloudy
2:22 PM 77.0 °F - 71.6 °F 83% 30.17 in 10.0 mi North 10.4 mph - 0.00 in   Mostly Cloudy
2:52 PM 78.1 °F - 70.0 °F 76% 30.16 in 10.0 mi NNW 4.6 mph - 0.00 in   Scattered Clouds
3:52 PM 80.1 °F 83.8 °F 72.0 °F 76% 30.14 in 10.0 mi NNW 4.6 mph - 0.01 in   Mostly Cloudy
4:52 PM 81.0 °F 84.1 °F 69.1 °F 67% 30.13 in 10.0 mi NE 9.2 mph - N/A   Scattered Clouds
5:52 PM 81.0 °F 84.1 °F 69.1 °F 67% 30.12 in 10.0 mi NE 8.1 mph - N/A   Scattered Clouds
6:52 PM 80.1 °F 82.9 °F 69.1 °F 69% 30.12 in 10.0 mi East 4.6 mph - N/A   Clear
7:52 PM 78.1 °F - 70.0 °F 76% 30.12 in 10.0 mi East 6.9 mph - N/A   Clear
8:52 PM 75.0 °F - 70.0 °F 84% 30.14 in 10.0 mi East 3.5 mph - N/A   Clear
9:52 PM 73.0 °F - 70.0 °F 90% 30.14 in 10.0 mi ENE 5.8 mph - N/A   Clear
10:52 PM 72.0 °F - 70.0 °F 93% 30.15 in 10.0 mi ENE 3.5 mph - N/A   Clear
11:52 PM 73.0 °F - 71.1 °F 93% 30.17 in 10.0 mi Calm Calm - N/A   Partly Cloudy